GW5895 Weather Reports


time (UTC)temp
C
wind
direction
speed
KPH
gust
KPH
rain 1hr
cm
rain 24hr
cm
rain mn
cm
humidity
%
barometer
mb
20260503190349 14 198 0.0 1.6 0.00 0.00 0.00 44 1015.3
20260503185846 14 184 0.0 1.6 0.00 0.00 0.00 44 1015.3
20260503185343 14 214 0.0 0.0 0.00 0.00 0.00 46 1015.2
20260503184842 14 220 1.6 1.6 0.00 0.00 0.00 47 1015.1
20260503184339 14 192 0.0 0.0 0.00 0.00 0.00 47 1015.4
20260503183834 13 234 1.6 1.6 0.00 0.00 0.00 44 1015.4
20260503183332 13 212 1.6 1.6 0.00 0.00 0.00 46 1015.6
20260503182829 13 226 1.6 1.6 0.00 0.00 0.00 43 1015.7
20260503182328 13 173 0.0 1.6 0.00 0.00 0.00 46 1015.9
20260503181825 13 208 0.0 0.0 0.00 0.00 0.00 47 1016.0
20260503181322 14 198 0.0 0.0 0.00 0.00 0.00 45 1016.0
20260503180818 14 195 0.0 1.6 0.00 0.00 0.00 43 1016.2
20260503180317 15 170 1.6 3.2 0.00 0.00 0.00 42 1016.3
20260503175812 15 217 0.0 1.6 0.00 0.00 0.00 46 1016.2
20260503175311 15 331 1.6 3.2 0.00 0.00 0.00 42 1016.2
20260503174806 15 215 0.0 0.0 0.00 0.00 0.00 43 1016.4
20260503174304 15 240 1.6 3.2 0.00 0.00 0.00 40 1016.3
20260503173759 15 199 0.0 1.6 0.00 0.00 0.00 39 1016.6
20260503173255 15 165 0.0 1.6 0.00 0.00 0.00 41 1016.7
20260503172752 15 219 1.6 1.6 0.00 0.00 0.00 40 1016.7
20260503172250 15 289 4.8 6.4 0.00 0.00 0.00 38 1016.7
20260503171746 15 220 1.6 3.2 0.00 0.00 0.00 42 1016.7
20260503171243 15 174 0.0 0.0 0.00 0.00 0.00 42 1016.9
20260503170740 15 204 0.0 0.0 0.00 0.00 0.00 41 1016.8
20260503170237 15 210 1.6 3.2 0.00 0.00 0.00 40 1016.9
20260503160154 15 181 1.6 1.6 0.00 0.00 0.00 40 1017.7
20260503150624 14 188 0.0 1.6 0.00 0.00 0.00 43 1017.9
20260503150120 15 163 3.2 4.8 0.00 0.00 0.00 42 1018.0
20260503131013 8 182 0.0 1.6 0.00 0.00 0.00 56 1018.5
20260503130510 8 187 0.0 0.0 0.00 0.00 0.00 58 1018.6
20260503110407 4 181 0.0 0.0 0.00 0.00 0.00 72 1018.4
20260503090257 3 192 0.0 0.0 0.00 0.00 0.00 82 1017.6
20260503081231 2 192 0.0 0.0 0.00 0.00 0.00 85 1017.7
20260503080726 2 192 0.0 0.0 0.00 0.00 0.00 86 1017.9
20260503080224 2 192 0.0 0.0 0.00 0.00 0.00 87 1017.8
20260503072700 2 192 0.0 0.0 0.00 0.00 0.00 85 1017.7
20260503072157 2 192 0.0 0.0 0.00 0.00 0.00 85 1017.9
20260503071654 2 192 0.0 0.0 0.00 0.00 0.00 85 1017.8
20260503071150 2 192 0.0 0.0 0.00 0.00 0.00 86 1017.9
20260503070647 2 192 0.0 0.0 0.00 0.00 0.00 87 1017.8
20260503070146 2 192 0.0 0.0 0.00 0.00 0.00 87 1017.8
20260503060110 2 192 0.0 0.0 0.00 0.00 0.00 91 1018.3
20260503055101 2 192 0.0 0.0 0.00 0.00 0.00 91 1018.4
20260503054557 2 192 0.0 0.0 0.00 0.00 0.00 90 1018.5
20260503054054 2 192 0.0 0.0 0.00 0.00 0.00 90 1018.4
20260503053552 2 192 0.0 0.0 0.00 0.00 0.00 90 1018.5
20260503053050 2 192 0.0 0.0 0.00 0.00 0.00 89 1018.6
20260503052546 3 192 0.0 0.0 0.00 0.00 0.00 89 1018.7
20260503052043 3 192 0.0 0.0 0.00 0.00 0.00 89 1018.6
20260503051538 3 192 0.0 0.0 0.00 0.00 0.00 88 1018.6
20260503051036 3 192 0.0 0.0 0.00 0.00 0.00 88 1018.5
20260503050531 3 192 0.0 0.0 0.00 0.00 0.00 88 1018.7
20260503050029 3 192 0.0 0.0 0.00 0.00 0.00 88 1018.5
20260503045526 3 192 0.0 0.0 0.00 0.00 0.00 88 1018.4
20260503045024 3 192 0.0 0.0 0.00 0.00 0.00 88 1018.5
20260503044520 3 192 0.0 0.0 0.00 0.00 0.00 88 1018.6
20260503044018 3 192 0.0 0.0 0.00 0.00 0.00 88 1018.6
20260503043513 3 192 0.0 0.0 0.00 0.00 0.00 88 1018.6
20260503043010 3 192 0.0 0.0 0.00 0.00 0.00 87 1018.5
20260503042507 3 192 0.0 0.0 0.00 0.00 0.00 87 1018.5
20260503042003 3 192 0.0 0.0 0.00 0.00 0.00 86 1018.5
20260503041500 3 192 0.0 0.0 0.00 0.00 0.00 85 1018.4
20260503040958 3 192 0.0 0.0 0.00 0.00 0.00 85 1018.5
20260503040455 3 192 0.0 0.0 0.00 0.00 0.00 84 1018.5
20260503035952 3 192 0.0 0.0 0.00 0.00 0.00 83 1018.5
20260503035449 3 192 0.0 0.0 0.00 0.00 0.00 83 1018.5
20260503034947 3 192 0.0 0.0 0.00 0.00 0.00 82 1018.5
20260503034444 3 192 0.0 0.0 0.00 0.00 0.00 82 1018.4
20260503033941 3 192 0.0 0.0 0.00 0.00 0.00 82 1018.4
20260503033438 3 192 0.0 0.0 0.00 0.00 0.00 81 1018.6
20260503032936 3 192 0.0 0.0 0.00 0.00 0.00 81 1018.5
20260503032435 3 192 0.0 0.0 0.00 0.00 0.00 81 1018.6
20260503031932 3 192 0.0 0.0 0.00 0.00 0.00 81 1018.5
20260503031430 3 192 0.0 0.0 0.00 0.00 0.00 80 1018.6
20260503030926 4 192 0.0 0.0 0.00 0.00 0.00 80 1018.7
20260503030422 3 192 0.0 0.0 0.00 0.00 0.00 79 1018.5
20260503025919 4 192 0.0 0.0 0.00 0.00 0.00 78 1018.8
20260503025416 4 192 0.0 0.0 0.00 0.00 0.00 77 1018.6
20260503024914 4 192 0.0 0.0 0.00 0.00 0.00 77 1018.6
20260503024410 4 192 0.0 0.0 0.00 0.00 0.00 75 1018.7
20260503023908 4 192 0.0 0.0 0.00 0.00 0.00 74 1018.8
20260503023405 5 192 0.0 0.0 0.00 0.00 0.00 73 1018.6
20260503022902 5 192 0.0 0.0 0.00 0.00 0.00 74 1018.6
20260503022401 5 192 0.0 0.0 0.00 0.00 0.00 72 1018.6
20260503021858 5 192 0.0 0.0 0.00 0.00 0.00 72 1018.7
20260503021354 5 192 0.0 0.0 0.00 0.00 0.00 71 1018.7
20260503020851 5 192 0.0 0.0 0.00 0.00 0.00 71 1018.6
20260503020349 5 192 0.0 0.0 0.00 0.00 0.00 70 1018.5
20260503015845 6 192 0.0 0.0 0.00 0.00 0.00 70 1018.4
20260503015343 6 192 0.0 0.0 0.00 0.00 0.00 70 1018.3
20260503014838 6 192 0.0 0.0 0.00 0.00 0.00 68 1018.3
20260503014336 6 192 0.0 0.0 0.00 0.00 0.00 67 1018.4
20260503013833 6 192 0.0 0.0 0.00 0.00 0.00 66 1018.3
20260503013331 6 192 0.0 0.0 0.00 0.00 0.00 65 1018.3
20260503012827 7 192 0.0 0.0 0.00 0.00 0.00 64 1018.2
20260503012326 7 193 0.0 0.0 0.00 0.00 0.00 60 1018.0
20260503011822 7 192 0.0 0.0 0.00 0.00 0.00 58 1018.2
20260503011319 7 193 0.0 0.0 0.00 0.00 0.00 56 1018.0
20260503010815 7 193 0.0 0.0 0.00 0.00 0.00 51 1017.9
20260503010313 8 193 0.0 0.0 0.00 0.00 0.00 50 1017.9
20260503005809 8 193 0.0 0.0 0.00 0.00 0.00 54 1018.2
20260503005307 8 193 0.0 0.0 0.00 0.00 0.00 46 1018.0
20260503004803 8 193 0.0 0.0 0.00 0.00 0.00 48 1018.2
20260503004301 9 193 0.0 0.0 0.00 0.00 0.00 47 1017.9
20260503003758 9 193 0.0 0.0 0.00 0.00 0.00 47 1017.9
20260503003254 10 193 0.0 0.0 0.00 0.00 0.00 48 1017.9
20260503002751 10 193 0.0 0.0 0.00 0.00 0.00 42 1017.8
20260503002248 10 193 0.0 0.0 0.00 0.00 0.00 41 1018.0
20260503001744 10 133 0.0 0.0 0.00 0.00 0.00 41 1017.7
20260503001241 10 133 0.0 0.0 0.00 0.00 0.00 41 1017.7
20260503000739 10 141 0.0 0.0 0.00 0.00 0.00 44 1017.8
20260503000236 10 139 1.6 1.6 0.00 0.00 0.00 41 1017.8
20260502235733 10 144 0.0 1.6 0.00 0.00 0.00 42 1017.6
20260502235231 10 144 0.0 0.0 0.00 0.00 0.00 42 1017.9
20260502234727 10 145 0.0 0.0 0.00 0.00 0.00 43 1017.7
20260502234225 10 144 0.0 0.0 0.00 0.00 0.00 42 1017.6
20260502233720 10 144 0.0 0.0 0.00 0.00 0.00 45 1017.6
20260502233217 10 144 0.0 0.0 0.00 0.00 0.00 44 1017.5
20260502232712 10 144 0.0 0.0 0.00 0.00 0.00 45 1017.6
20260502232210 10 143 1.6 1.6 0.00 0.00 0.00 41 1017.7
20260502231707 10 162 0.0 1.6 0.00 0.00 0.00 40 1017.7
20260502231204 10 163 0.0 0.0 0.00 0.00 0.00 44 1017.9
20260502230703 10 163 0.0 0.0 0.00 0.00 0.00 43 1017.8
20260502230201 10 158 0.0 1.6 0.00 0.00 0.00 42 1017.6
20260502225656 10 141 0.0 0.0 0.00 0.00 0.00 41 1017.7
20260502225154 10 170 0.0 0.0 0.00 0.00 0.00 42 1017.8
20260502224650 11 214 0.0 0.0 0.00 0.00 0.00 43 1017.8
20260502224147 11 213 0.0 1.6 0.00 0.00 0.00 41 1017.8
20260502223645 10 211 0.0 0.0 0.00 0.00 0.00 41 1017.8
20260502223142 10 211 0.0 0.0 0.00 0.00 0.00 40 1017.8
20260502222640 11 206 0.0 0.0 0.00 0.00 0.00 40 1017.8
20260502222136 11 160 0.0 0.0 0.00 0.00 0.00 41 1017.9
20260502221632 11 128 1.6 1.6 0.00 0.00 0.00 41 1017.9
20260502221129 10 109 0.0 1.6 0.00 0.00 0.00 38 1017.8
20260502220626 11 56 3.2 4.8 0.00 0.00 0.00 40 1017.7
20260502220122 11 62 1.6 3.2 0.00 0.00 0.00 41 1017.5
20260502215619 10 147 0.0 1.6 0.00 0.00 0.00 41 1017.7
20260502215116 10 111 1.6 1.6 0.00 0.00 0.00 43 1017.8
20260502214613 10 68 1.6 3.2 0.00 0.00 0.00 42 1017.7
20260502214110 10 154 0.0 0.0 0.00 0.00 0.00 42 1017.8
20260502213608 10 164 0.0 1.6 0.00 0.00 0.00 44 1017.8
20260502213104 11 112 1.6 1.6 0.00 0.00 0.00 41 1017.7
20260502212604 11 140 1.6 1.6 0.00 0.00 0.00 40 1017.8
20260502212101 11 181 0.0 1.6 0.00 0.00 0.00 42 1017.8
20260502211556 11 259 0.0 0.0 0.00 0.00 0.00 41 1017.8
20260502211054 11 225 1.6 1.6 0.00 0.00 0.00 42 1017.8
20260502210550 11 236 1.6 1.6 0.00 0.00 0.00 42 1017.7
20260502210047 11 260 1.6 1.6 0.00 0.00 0.00 39 1017.7
20260502205544 11 54 3.2 4.8 0.00 0.00 0.00 39 1017.7
20260502205041 11 133 1.6 3.2 0.00 0.00 0.00 43 1017.9
20260502204538 12 336 1.6 3.2 0.00 0.00 0.00 38 1017.8
20260502204036 12 247 1.6 3.2 0.00 0.00 0.00 38 1017.9
20260502203532 11 243 1.6 1.6 0.00 0.00 0.00 42 1017.9
20260502203029 11 31 1.6 3.2 0.00 0.00 0.00 42 1017.6
20260502202525 11 61 3.2 4.8 0.00 0.00 0.00 41 1017.9
20260502202024 10 257 1.6 1.6 0.00 0.00 0.00 43 1017.8
20260502201520 10 142 1.6 1.6 0.00 0.00 0.00 41 1017.9
20260502201016 11 100 1.6 1.6 0.00 0.00 0.00 42 1017.9
20260502200512 12 250 1.6 3.2 0.00 0.00 0.00 39 1017.9
20260502200010 12 253 1.6 1.6 0.00 0.00 0.00 38 1018.0
20260502195508 12 204 1.6 1.6 0.00 0.00 0.00 45 1018.2
20260502195003 12 255 1.6 1.6 0.00 0.00 0.00 42 1017.9
20260502194500 12 232 1.6 1.6 0.00 0.00 0.00 39 1018.3
20260502193956 12 223 0.0 0.0 0.00 0.00 0.00 43 1017.9
20260502193454 11 213 0.0 1.6 0.00 0.00 0.00 43 1018.2
20260502192949 11 272 3.2 3.2 0.00 0.00 0.00 47 1018.4
20260502192446 11 222 0.0 1.6 0.00 0.00 0.00 51 1018.2
20260502191943 10 72 0.0 1.6 0.00 0.00 0.00 45 1018.4
20260502191441 11 72 1.6 1.6 0.00 0.00 0.00 44 1018.4
20260502190938 12 52 3.2 3.2 0.00 0.00 0.00 43 1018.4
20260502190435 11 267 1.6 3.2 0.00 0.00 0.00 44 1018.6